Weather reports worldwide

Advertisment
Donna Nook RAF, United Kingdom (3385): temperature & dewpoint: 13.08.2018 20:00:00 - 19.08.2018 20:00:00 (BST)Donna Nook RAF, United Kingdom (3385): wind speed & gusts: 13.08.2018 20:00:00 - 19.08.2018 20:00:00 (BST)Donna Nook RAF, United Kingdom (3385): wind direction: 13.08.2018 20:00:00 - 19.08.2018 20:00:00 (BST)Donna Nook RAF, United Kingdom (3385): reduced air pressure: 13.08.2018 20:00:00 - 19.08.2018 20:00:00 (BST)Donna Nook RAF, United Kingdom (3385): visibility: 13.08.2018 20:00:00 - 19.08.2018 20:00:00 (BST)
Date & Time tt [°C] td [°C] ff [km/h] ff [kn] fx [km/h] fx [kn] dd ppp [hPa] vv [km]
19.08.2018 20:00:00 19,3 14,9 15 8 - - W 1016,0 10
19.08.2018 19:00:00 20,6 15,0 18 10 - - W 1015,5 10
19.08.2018 18:00:00 21,3 14,8 13 7 - - W 1015,4 10
19.08.2018 17:00:00 21,8 15,1 13 7 - - WSW 1014,9 40
19.08.2018 16:00:00 22,7 15,3 21 11 - - WSW 1014,4 10
19.08.2018 15:00:00 22,0 15,2 24 13 - - WSW 1014,2 10
19.08.2018 14:00:00 20,8 16,1 28 15 - - SW 1013,8 10
19.08.2018 13:00:00 21,1 16,0 29 16 50 27 SW 1013,5 10
19.08.2018 12:00:00 20,6 16,2 35 19 54 29 SW 1013,3 40
19.08.2018 11:00:00 20,2 15,6 34 18 52 28 SW 1013,4 10
19.08.2018 10:00:00 19,8 15,3 29 16 54 29 SSW 1013,5 35
19.08.2018 09:00:00 18,6 14,9 26 14 46 25 SSW 1013,6 10
19.08.2018 08:00:00 18,6 15,8 24 13 - - S 1013,7 10
19.08.2018 07:00:00 17,9 16,5 21 11 - - S 1014,0 10
19.08.2018 06:00:00 18,0 16,2 18 10 - - S 1014,4 10
19.08.2018 05:00:00 18,2 15,8 18 10 - - S 1015,2 35
19.08.2018 04:00:00 18,6 15,7 18 10 - - SSW 1016,2 35
19.08.2018 03:00:00 18,7 15,6 18 10 - - SSW 1016,8 10
19.08.2018 02:00:00 19,7 16,1 13 7 - - S 1017,0 10
19.08.2018 01:00:00 19,9 16,2 24 13 - - SSW 1017,1 23
19.08.2018 00:00:00 19,3 16,1 16 9 - - SSW 1017,5 21
18.08.2018 23:00:00 20,0 15,9 18 10 - - SSW 1017,6 10
18.08.2018 22:00:00 19,6 15,2 15 8 - - S 1017,5 23
18.08.2018 21:00:00 20,5 15,2 16 9 - - SSW 1017,4 25
18.08.2018 20:00:00 21,4 14,8 16 9 - - SW 1017,3 26
18.08.2018 19:00:00 22,6 14,5 24 13 - - SW 1016,8 10
18.08.2018 18:00:00 22,1 13,9 28 15 - - SSW 1016,7 24
18.08.2018 17:00:00 23,2 14,1 22 12 - - WSW 1016,6 10
18.08.2018 16:00:00 22,8 13,6 22 12 - - WSW 1017,0 22
18.08.2018 15:00:00 23,1 13,2 21 11 - - WSW 1016,9 10
18.08.2018 14:00:00 23,5 13,5 26 14 - - SW 1017,1 22
18.08.2018 13:00:00 22,4 13,1 24 13 - - SSW 1017,2 10
18.08.2018 12:00:00 21,3 14,1 29 16 - - SSW 1017,0 10
18.08.2018 11:00:00 20,3 13,7 28 15 - - SW 1017,1 23
18.08.2018 10:00:00 20,0 13,9 24 13 - - SW 1016,8 10
18.08.2018 09:00:00 18,6 13,6 28 15 - - SW 1016,9 10
18.08.2018 08:00:00 16,3 12,9 24 13 - - SSW 1016,9 21
18.08.2018 07:00:00 15,8 12,8 18 10 - - S 1016,7 20
18.08.2018 06:00:00 15,8 12,5 22 12 - - SSW 1016,3 20
18.08.2018 05:00:00 15,9 12,8 21 11 - - SSW 1016,2 10
18.08.2018 04:00:00 15,6 12,6 16 9 - - SSW 1016,6 27
18.08.2018 03:00:00 15,3 12,4 21 11 - - SSW 1016,7 10
18.08.2018 02:00:00 15,5 12,2 18 10 - - SSW 1016,6 10
18.08.2018 01:00:00 15,9 12,1 16 9 - - SSW 1016,9 10
18.08.2018 00:00:00 16,2 11,8 22 12 - - SSW 1017,1 29
17.08.2018 23:00:00 16,3 11,7 18 10 - - SSW 1017,4 10
17.08.2018 22:00:00 16,8 11,4 21 11 - - SW 1017,2 10
17.08.2018 21:00:00 16,7 11,0 15 8 - - SSW 1017,0 30
17.08.2018 20:00:00 17,2 10,5 22 12 - - SW 1016,8 10
17.08.2018 19:00:00 18,0 10,0 26 14 - - SW 1016,7 35
17.08.2018 18:00:00 19,1 9,8 28 15 48 26 SW 1016,7 10
17.08.2018 17:00:00 18,7 9,5 28 15 48 26 SW 1016,8 30
17.08.2018 16:00:00 19,3 9,4 26 14 - - SW 1016,9 10
17.08.2018 15:00:00 19,5 9,0 24 13 - - SW 1017,0 35
17.08.2018 14:00:00 19,1 8,9 22 12 - - SW 1017,3 10
17.08.2018 13:00:00 18,6 8,6 22 12 - - SW 1017,5 10
17.08.2018 12:00:00 18,7 9,2 26 14 - - SW 1017,3 30
17.08.2018 11:00:00 17,7 10,7 16 9 - - SW 1017,7 10
17.08.2018 10:00:00 16,8 11,2 18 10 - - SW 1017,7 10
17.08.2018 09:00:00 15,5 11,4 15 8 - - WSW 1017,5 10
17.08.2018 08:00:00 14,0 11,6 13 7 - - SW 1017,0 10
17.08.2018 07:00:00 11,9 10,6 13 7 - - SW 1016,7 14
17.08.2018 06:00:00 11,1 10,0 16 9 - - SW 1016,1 10
17.08.2018 05:00:00 10,9 9,7 13 7 - - SW 1015,5 10
17.08.2018 04:00:00 10,5 9,3 11 6 - - SSW 1015,5 10
17.08.2018 03:00:00 11,1 9,3 13 7 - - SSW 1015,2 10
17.08.2018 02:00:00 12,0 9,8 16 9 - - SW 1014,8 30
17.08.2018 01:00:00 12,1 9,5 13 7 - - SW 1014,8 10
17.08.2018 00:00:00 12,1 9,4 11 6 - - SW 1014,6 10
16.08.2018 23:00:00 12,8 9,2 11 6 - - SW 1014,1 30
16.08.2018 22:00:00 14,2 9,2 8 4 - - SW 1013,7 30
16.08.2018 21:00:00 15,7 9,1 13 7 - - WSW 1013,0 35
16.08.2018 20:00:00 17,6 9,6 13 7 - - WSW 1012,2 35
16.08.2018 19:00:00 18,5 9,3 16 9 - - WSW 1011,6 10
16.08.2018 18:00:00 18,9 8,9 18 10 - - SW 1011,3 10
16.08.2018 17:00:00 19,2 8,7 21 11 - - WSW 1010,9 10
16.08.2018 16:00:00 19,9 9,3 21 11 - - SW 1010,5 10
16.08.2018 15:00:00 18,4 10,6 22 12 - - SW 1010,7 10
16.08.2018 14:00:00 16,7 11,8 15 8 - - WSW 1010,5 10
16.08.2018 13:00:00 15,7 11,9 11 6 - - WSW 1010,5 10
16.08.2018 12:00:00 14,6 12,8 18 10 - - W 1010,2 10
16.08.2018 11:00:00 16,6 15,5 16 9 - - SW 1009,6 20
16.08.2018 10:00:00 16,2 15,3 21 11 - - SW 1009,7 10
16.08.2018 09:00:00 16,0 15,3 21 11 - - SSW 1009,5 10
16.08.2018 08:00:00 15,2 14,8 13 7 - - SSW 1009,3 10
16.08.2018 07:00:00 15,1 14,4 16 9 - - SW 1009,4 2,8
16.08.2018 06:00:00 16,7 15,9 16 9 50 27 SSW 1009,2 3,1
16.08.2018 05:00:00 17,7 15,4 21 11 - - S 1009,0 10
16.08.2018 04:00:00 18,4 15,0 24 13 - - SSW 1009,6 10
16.08.2018 03:00:00 18,8 14,8 26 14 - - SSW 1010,0 10
16.08.2018 02:00:00 18,7 14,9 18 10 - - S 1010,3 10
16.08.2018 01:00:00 18,8 14,2 16 9 - - S 1010,7 21
16.08.2018 00:00:00 19,6 13,9 22 12 - - SSW 1011,0 10
15.08.2018 23:00:00 20,3 13,8 28 15 - - SSW 1011,3 10
15.08.2018 22:00:00 20,1 13,8 15 8 - - S 1011,8 10
15.08.2018 21:00:00 20,9 14,0 21 11 - - SSW 1011,9 24
15.08.2018 20:00:00 22,1 14,4 28 15 46 25 SSW 1011,8 23
15.08.2018 19:00:00 23,6 14,8 28 15 46 25 SSW 1011,5 10
15.08.2018 18:00:00 24,4 15,5 28 15 48 26 SSW 1011,8 10
15.08.2018 17:00:00 24,6 15,4 35 19 52 28 SSW 1012,2 25
15.08.2018 16:00:00 25,0 14,4 29 16 52 28 SW 1012,4 10
15.08.2018 15:00:00 25,5 15,1 34 18 50 27 SSW 1012,9 10
15.08.2018 14:00:00 24,4 15,6 29 16 - - SSW 1013,2 10
15.08.2018 13:00:00 23,4 15,6 26 14 - - SW 1013,7 10
15.08.2018 12:00:00 22,2 16,0 24 13 - - SSW 1014,1 10
15.08.2018 11:00:00 20,1 13,8 28 15 - - SW 1014,2 10
15.08.2018 10:00:00 20,3 14,6 22 12 - - SW 1014,3 10
15.08.2018 09:00:00 18,7 14,3 22 12 - - SW 1014,4 19
15.08.2018 08:00:00 17,4 14,5 16 9 - - SW 1014,6 15
15.08.2018 07:00:00 17,0 14,3 18 10 - - SW 1014,8 10
15.08.2018 06:00:00 16,2 14,3 13 7 - - S 1014,7 10
15.08.2018 05:00:00 16,4 14,3 15 8 - - SSW 1014,5 15
15.08.2018 04:00:00 17,2 14,8 15 8 - - SSW 1014,8 10
15.08.2018 03:00:00 16,7 14,8 11 6 - - SSW 1014,8 10
15.08.2018 02:00:00 15,7 13,5 9 5 - - S 1015,1 10
15.08.2018 01:00:00 16,9 14,5 15 8 - - SSW 1015,1 10
15.08.2018 00:00:00 15,6 13,6 8 4 - - SSE 1015,3 21
14.08.2018 23:00:00 16,4 13,7 5 3 - - SSW 1015,3 22
14.08.2018 22:00:00 18,0 14,3 8 4 - - SSW 1015,2 25
14.08.2018 21:00:00 19,3 14,5 8 4 - - WSW 1015,0 10
14.08.2018 20:00:00 20,2 14,7 9 5 - - WNW 1014,7 10
14.08.2018 19:00:00 20,6 14,6 11 6 - - WNW 1014,3 30
14.08.2018 18:00:00 21,3 13,7 13 7 - - WSW 1014,1 35
14.08.2018 17:00:00 21,4 13,7 21 11 - - W 1014,2 10
14.08.2018 16:00:00 22,0 13,0 15 8 - - W 1014,1 35
14.08.2018 15:00:00 22,5 12,9 15 8 - - WSW 1014,1 10
14.08.2018 14:00:00 21,6 13,6 16 9 - - WSW 1014,1 10
14.08.2018 13:00:00 20,4 12,7 13 7 - - WSW 1014,3 10
14.08.2018 12:00:00 20,1 12,4 9 5 - - W 1014,0 10
14.08.2018 11:00:00 19,0 12,7 13 7 - - W 1014,1 10
14.08.2018 10:00:00 18,0 13,0 11 6 - - W 1013,6 10
14.08.2018 09:00:00 17,2 13,0 18 10 - - W 1013,5 10
14.08.2018 08:00:00 16,4 13,2 16 9 - - W 1013,0 10
14.08.2018 07:00:00 15,7 13,1 16 9 - - W 1012,7 10
14.08.2018 06:00:00 15,7 13,5 13 7 - - W 1012,1 30
14.08.2018 05:00:00 15,9 14,1 9 5 - - W 1011,7 10
14.08.2018 04:00:00 16,0 14,4 8 4 - - W 1011,4 10
14.08.2018 03:00:00 16,2 14,6 15 8 - - W 1011,2 10
14.08.2018 02:00:00 16,5 15,1 13 7 - - W 1011,0 23
14.08.2018 01:00:00 16,8 15,7 8 4 - - W 1010,5 16
14.08.2018 00:00:00 17,3 15,3 13 7 - - WNW 1010,1 10
13.08.2018 23:00:00 17,0 15,9 16 9 - - N 1009,7 10
13.08.2018 22:00:00 17,0 16,2 21 11 - - N 1009,2 23
13.08.2018 21:00:00 16,9 16,4 15 8 - - NW 1008,7 10
13.08.2018 20:00:00 17,3 16,3 9 5 - - NW 1008,0 10

tt = temperature
td = dewpoint
ff = wind speed
fx = gusts
dd = wind direction
ppp = reduced air pressure
vv = visibility

Next stations